Find Kosmos-2125

NORAD ID: 21100 Int'l Des: 1991-009 Owner: UNKSR Country: SU operational
LEOCIRCULAR

現在のビュー

3D地球を読み込み中...

Kosmos-2125について

説明を読み込み中...

次回通過

Passes for default location (London). Set your location on the main map for personalized predictions.

高度履歴

Loading altitude history...

軌道要素

1 21100U 91009A 26150.25944763 .00000002 00000-0 12017-3 0 9993
2 21100 74.0309 344.2601 0010190 226.4203 247.0480 12.49966569610491
Epoch: May 30, 2026 • Age: 19 hours

現在のステータス

高度 1473.2 km
速度 7.12 km/s
衛星直下点 -8.20°S, 80.59°E
打ち上げ日 Feb 12, 1991
運用期間 35.2 years
タイプ other

技術仕様

分類 Payload
質量 60.00 kg
乾燥質量 60.00 kg
総質量 60.00 kg
長さ 0.80 m
直径 0.80 m
スパン 0.80 m
形状 Poly
製造者 NPOPM
バスタイプ Strela-1 11F625
フェーズステータス In Orbit
所有者/国 UNKSR/SU

Most Searched